Flag for Germany Weather past 2 weeks in Verden (Aller), Lower Saxony, Germany

Now
52 °F

Drizzle. Fog.


Feels Like: 45 °F
Forecast: 49 / 50 °F
Wind: 24 mph from West

Location: Bremen Airport

Current Time: Dec 22, 2014 at 2:58:36 PM

Latest Report: Dec 22, 2014 at 2:20 PM


Visibility: 3 mi

Pressure: 29.80 "Hg

Humidity: 94%

Dew point: 50 °F

Location of Verden (Aller)Location

Historic Weather in Verden (Aller) — Graph

°F

Verden (Aller) temperature yesterday

Maximum temperature yesterday: 48 °F (at 11:50 PM)
Minimum temperature yesterday: 39 °F (at 5:20 AM)
Average temperature yesterday: 43 °F

Past Weeks' High & Low Weather Summary

 TemperatureHumidityPressure
High54 °F (Dec 18, 3:50 PM)100% (Dec 7, 9:50 PM)30.33 "Hg (Dec 7, 9:50 PM)
Low32 °F (Dec 13, 8:50 PM)70% (Dec 10, 4:20 AM)29.24 "Hg (Dec 12, 11:50 AM)
Average42 °F89%29.82 "Hg
* Reported Dec 7 1:20 PM — Dec 22 1:50 PM, Verden (Aller), Weather by CustomWeather, © 2014

Note: Actual official high and low records may vary slightly from our data, if they occured in-between our weather recording intervals... More about our weather records

Advertising

Verden (Aller) weather history for previous 24 hours

 ConditionsComfort  
Time TempWeatherWind HumidityBarometerVisibility
1:50 PM
Dec 22
52 °FDrizzle. Fog.24 mph94%29.80 "Hg2 mi
1:20 PM52 °FDrizzle. Fog.23 mph94%29.80 "Hg2 mi
12:50 PM52 °FDrizzle. Fog.22 mph94%29.80 "Hg3 mi
12:20 PM52 °FDrizzle. Fog.25 mph94%29.80 "Hg3 mi
11:50 AM52 °FDrizzle. Broken clouds.24 mph94%29.80 "Hg4 mi
11:20 AM52 °FDrizzle. Fog.25 mph94%29.80 "Hg3 mi
10:50 AM52 °FDrizzle. Fog.28 mph94%29.80 "Hg3 mi
10:20 AM52 °FDrizzle. Fog.26 mph94%29.80 "Hg2 mi
9:50 AM50 °FDrizzle. Fog.26 mph94%29.80 "Hg2 mi
9:20 AM50 °FDrizzle. Fog.25 mph94%29.80 "Hg3 mi
8:50 AM50 °FDrizzle. Fog.24 mph94%29.83 "Hg3 mi
8:20 AM50 °FPassing clouds.23 mph94%29.83 "Hg4 mi
7:50 AM50 °FPassing clouds.25 mph94%29.83 "Hg4 mi
7:20 AM50 °FPassing clouds.25 mph94%29.83 "Hg4 mi
6:50 AM50 °FPassing clouds.24 mph94%29.83 "Hg4 mi
6:20 AM50 °FPassing clouds.24 mph94%29.83 "Hg4 mi
5:50 AM50 °FDrizzle. Fog.22 mph94%29.86 "Hg2 mi
5:20 AM50 °FDrizzle. Fog.24 mph94%29.86 "Hg2 mi
4:20 AM50 °FDrizzle. Fog.26 mph94%29.86 "Hg2 mi
3:50 AM50 °FPassing clouds.25 mph88%29.89 "Hg5 mi
3:20 AM50 °FPassing clouds.26 mph88%29.89 "Hg5 mi
2:50 AM50 °FPassing clouds.28 mph88%29.89 "Hg4 mi
2:20 AM48 °FDrizzle. Fog.24 mph94%29.89 "Hg3 mi
1:20 AM48 °FLight rain. Passing clouds.28 mph87%29.89 "HgN/A
12:50 AM48 °FPassing clouds.26 mph82%29.92 "HgN/A
12:20 AM48 °FPassing clouds.25 mph82%29.95 "HgN/A
11:50 PM
Dec 21
48 °FPassing clouds.25 mph82%29.95 "HgN/A
11:20 PM46 °FLight rain. Passing clouds.25 mph87%29.98 "HgN/A
10:20 PM46 °FPassing clouds.25 mph82%29.98 "HgN/A
9:50 PM46 °FPassing clouds.21 mph82%29.98 "HgN/A
9:20 PM46 °FPassing clouds.20 mph82%30.01 "HgN/A
8:50 PM46 °FPassing clouds.23 mph82%30.01 "HgN/A
8:20 PM46 °FPassing clouds.22 mph82%30.01 "HgN/A
7:50 PM46 °FPassing clouds.21 mph82%30.04 "HgN/A
7:20 PM45 °FPassing clouds.20 mph87%30.04 "HgN/A
6:50 PM45 °FPassing clouds.20 mph87%30.04 "HgN/A
6:20 PM45 °FPassing clouds.20 mph87%30.07 "HgN/A
5:50 PM45 °FPassing clouds.16 mph87%30.07 "HgN/A
5:20 PM45 °FPassing clouds.18 mph87%30.07 "HgN/A
4:50 PM45 °FPassing clouds.18 mph87%30.09 "HgN/A
4:20 PM45 °FPassing clouds.15 mph87%30.09 "HgN/A
3:50 PM43 °FPartly sunny.15 mph93%30.09 "HgN/A
3:20 PM43 °FLight rain. Partly sunny.15 mph93%30.12 "HgN/A
2:50 PM45 °FLight rain. Partly sunny.16 mph87%30.12 "HgN/A
2:20 PM45 °FLight rain. Partly sunny.16 mph87%30.15 "HgN/A
Weather by CustomWeather, © 2014

See weather overviewHow to use our weather pages